Weather History for Howell, MI

Change the Weather History Date:

Tuesday, September 11, 2012

  Actual Average Record
Temperature  
Mean Temperature 64 °F -  
Max Temperature 79 °F 75 °F 89 °F (2013)
Min Temperature 48 °F 53 °F 46 °F (2008)
Degree Days  
Heating Degree Days 2    
Growing Degree Days 14 (Base 50)    
Moisture  
Dew Point 45 °F    
Average Humidity 51    
Maximum Humidity 78    
Minimum Humidity 28    
Precipitation  
Precipitation 0.00 in - - ()
Sea Level Pressure  
Sea Level Pressure 30.18 in    
Wind  
Wind Speed 5 mph (SSW)    
Max Wind Speed 15 mph    
Max Gust Speed 21 mph    
Visibility 10 miles    
Events      
Averages and records for this station are not official NWS values.
T = Trace of Precipitation, MM = Missing Value Source: NWS Daily Summary

Daily Weather History Graph

Daily Weather History Graph

Search for Another Location

Airport:

Trip Planner

Search our weather history database for the weather conditions in past years. The results will help you decide how hot, cold, wet, or windy it might be!

Date:

Astronomy

Sep. 11, 2012 Rise Set
Actual Time 7:11 AM EDT 7:51 PM EDT
Civil Twilight 6:43 AM EDT 8:20 PM EDT
Nautical Twilight 6:09 AM EDT 8:53 PM EDT
Astronomical Twilight 5:34 AM EDT 9:28 PM EDT
Moon 2:23 AM EDT (9/11) 5:05 PM EDT (9/11)
Length of Visible Light 13h 36m
Length of Day
12h 39m
Waning Crescent, 21% of the Moon is Illuminated
Sep 11
Waning Crescent
Sep 15
New
Sep 22
First Quarter
Sep 29
Full
Oct 8
Last Quarter

Hourly Weather History & Observations

Time (EDT) Temp. Dew Point Humidity Pressure Visibility Wind Dir Wind Speed Gust Speed Precip Events Conditions
12:15 AM 57.4 °F 40.5 °F 53% 30.17 in 10.0 mi SSW 3.5 mph - N/A   Clear
12:35 AM 56.1 °F 41.0 °F 57% 30.17 in 10.0 mi SSW 3.5 mph - N/A   Clear
12:55 AM 54.0 °F 41.9 °F 64% 30.17 in 10.0 mi Calm Calm - N/A   Clear
1:15 AM 53.6 °F 43.2 °F 68% 30.17 in 10.0 mi Calm Calm - N/A   Clear
1:35 AM 52.7 °F 42.6 °F 69% 30.17 in 10.0 mi Calm Calm - N/A   Clear
1:55 AM 52.5 °F 43.3 °F 71% 30.17 in 10.0 mi Calm Calm - N/A   Clear
2:15 AM 53.1 °F 42.4 °F 67% 30.18 in 10.0 mi Calm Calm - N/A   Clear
2:35 AM 51.8 °F 42.4 °F 70% 30.17 in 10.0 mi Calm Calm - N/A   Clear
2:54 AM 52.3 °F 42.8 °F 70% 30.18 in 10.0 mi Calm Calm - N/A   Clear
3:15 AM 51.8 °F 42.4 °F 70% 30.18 in 10.0 mi Calm Calm - N/A   Clear
3:35 AM 52.0 °F 42.8 °F 71% 30.18 in 10.0 mi Calm Calm - N/A   Clear
3:54 AM 51.6 °F 42.8 °F 72% 30.18 in 10.0 mi Calm Calm - N/A   Clear
4:15 AM 51.3 °F 43.0 °F 73% 30.18 in 10.0 mi Calm Calm - N/A   Clear
4:35 AM 49.8 °F 42.6 °F 76% 30.19 in 10.0 mi SE 4.6 mph - N/A   Clear
4:54 AM 49.5 °F 42.8 °F 78% 30.19 in 10.0 mi Calm Calm - N/A   Clear
5:15 AM 48.9 °F 42.4 °F 78% 30.19 in 10.0 mi Calm Calm - N/A   Clear
5:35 AM 50.4 °F 43.0 °F 76% 30.19 in 10.0 mi South 4.6 mph - N/A   Clear
5:55 AM 54.0 °F 42.8 °F 66% 30.19 in 10.0 mi South 5.8 mph - N/A   Clear
6:15 AM 54.3 °F 42.8 °F 65% 30.20 in 10.0 mi SSW 4.6 mph - N/A   Clear
6:35 AM 53.6 °F 42.8 °F 67% 30.20 in 10.0 mi SSW 4.6 mph - N/A   Clear
6:55 AM 53.2 °F 43.0 °F 68% 30.20 in 10.0 mi SSW 3.5 mph - N/A   Clear
7:15 AM 53.6 °F 43.3 °F 68% 30.20 in 10.0 mi SSW 4.6 mph - N/A   Clear
7:35 AM 54.7 °F 43.7 °F 66% 30.21 in 10.0 mi South 3.5 mph - N/A   Clear
7:55 AM 55.4 °F 44.2 °F 66% 30.21 in 10.0 mi SSW 3.5 mph - N/A   Clear
8:15 AM 56.3 °F 45.0 °F 66% 30.22 in 10.0 mi Calm Calm - N/A   Clear
8:34 AM 58.3 °F 45.3 °F 62% 30.22 in 10.0 mi South 4.6 mph - N/A   Clear
8:55 AM 60.1 °F 45.9 °F 59% 30.21 in 10.0 mi SSW 5.8 mph - N/A   Clear
9:15 AM 62.1 °F 46.4 °F 56% 30.21 in 10.0 mi South 3.5 mph - N/A   Clear
9:34 AM 64.6 °F 46.8 °F 52% 30.21 in 10.0 mi SSW 8.1 mph - N/A   Clear
9:55 AM 66.4 °F 47.1 °F 50% 30.22 in 10.0 mi SSW 8.1 mph - N/A   Clear
10:15 AM 68.2 °F 47.7 °F 48% 30.21 in 10.0 mi SSW 8.1 mph - N/A   Clear
10:34 AM 70.0 °F 48.7 °F 47% 30.21 in 10.0 mi SSW 5.8 mph - N/A   Clear
10:55 AM 71.4 °F 49.1 °F 45% 30.21 in 10.0 mi SSW 9.2 mph - N/A   Clear
11:15 AM 72.7 °F 47.8 °F 41% 30.22 in 10.0 mi SW 11.5 mph 17.3 mph N/A   Clear
11:35 AM 73.6 °F 47.8 °F 40% 30.21 in 10.0 mi SSW 9.2 mph - N/A   Clear
11:55 AM 75.0 °F 47.7 °F 38% 30.21 in 10.0 mi SW 10.4 mph 17.3 mph N/A   Clear
12:15 PM 75.0 °F 48.2 °F 39% 30.20 in 10.0 mi SW 10.4 mph 17.3 mph N/A   Clear
12:35 PM 75.9 °F 47.7 °F 37% 30.20 in 10.0 mi South 15.0 mph 19.6 mph N/A   Clear
12:55 PM 76.5 °F 46.6 °F 35% 30.19 in 10.0 mi SSW 11.5 mph - N/A   Clear
1:14 PM 76.8 °F 46.8 °F 34% 30.19 in 10.0 mi SSW 10.4 mph 18.4 mph N/A   Clear
1:35 PM 77.5 °F 45.9 °F 33% 30.18 in 10.0 mi SW 12.7 mph 18.4 mph N/A   Clear
1:55 PM 78.1 °F 45.9 °F 32% 30.18 in 10.0 mi SSW 12.7 mph 18.4 mph N/A   Clear
2:15 PM 78.3 °F 45.5 °F 31% 30.17 in 10.0 mi SSW 12.7 mph 20.7 mph N/A   Clear
2:35 PM 78.8 °F 45.7 °F 31% 30.17 in 10.0 mi SSW 10.4 mph - N/A   Clear
2:54 PM 79.3 °F 45.0 °F 30% 30.16 in 10.0 mi SSW 11.5 mph 16.1 mph N/A   Clear
3:15 PM 79.0 °F 44.8 °F 30% 30.16 in 10.0 mi SW 10.4 mph 16.1 mph N/A   Clear
3:35 PM 79.0 °F 45.3 °F 30% 30.15 in 10.0 mi South 10.4 mph 18.4 mph N/A   Clear
3:54 PM 79.5 °F 45.1 °F 30% 30.15 in 10.0 mi South 12.7 mph 18.4 mph N/A   Clear
4:15 PM 79.5 °F 45.1 °F 30% 30.14 in 10.0 mi South 12.7 mph - N/A   Clear
4:35 PM 79.9 °F 44.4 °F 28% 30.15 in 10.0 mi SW 10.4 mph 17.3 mph N/A   Clear
4:55 PM 79.9 °F 45.3 °F 29% 30.14 in 10.0 mi SSW 10.4 mph 17.3 mph N/A   Clear
5:15 PM 79.0 °F 43.5 °F 28% 30.15 in 10.0 mi South 10.4 mph 20.7 mph N/A   Clear
5:34 PM 78.8 °F 45.5 °F 31% 30.14 in 10.0 mi South 5.8 mph 18.4 mph N/A   Clear
5:55 PM 78.1 °F 45.9 °F 32% 30.14 in 10.0 mi South 10.4 mph - N/A   Clear
6:14 PM 77.7 °F 45.3 °F 32% 30.14 in 10.0 mi SSW 9.2 mph - N/A   Clear
6:35 PM 77.2 °F 45.3 °F 32% 30.14 in 10.0 mi SSW 10.4 mph 16.1 mph N/A   Clear
6:55 PM 76.5 °F 46.4 °F 34% 30.13 in 10.0 mi South 5.8 mph - N/A   Clear
7:14 PM 75.6 °F 47.7 °F 37% 30.13 in 10.0 mi South 9.2 mph - N/A   Clear
7:35 PM 74.1 °F 47.8 °F 39% 30.13 in 10.0 mi South 5.8 mph - N/A   Clear
7:55 PM 72.5 °F 48.0 °F 42% 30.14 in 10.0 mi South 4.6 mph - N/A   Clear
8:15 PM 70.9 °F 48.2 °F 44% 30.15 in 10.0 mi South 4.6 mph - N/A   Clear
8:35 PM 70.2 °F 47.8 °F 45% 30.15 in 10.0 mi South 5.8 mph - N/A   Clear
8:55 PM 69.8 °F 47.8 °F 46% 30.15 in 10.0 mi South 5.8 mph - N/A   Clear
9:15 PM 68.9 °F 48.2 °F 48% 30.16 in 10.0 mi SSE 3.5 mph - N/A   Clear
9:35 PM 67.5 °F 49.1 °F 52% 30.16 in 10.0 mi South 4.6 mph - N/A   Clear
9:54 PM 66.6 °F 49.3 °F 54% 30.16 in 10.0 mi South 5.8 mph - N/A   Clear
10:15 PM 67.5 °F 48.6 °F 51% 30.16 in 10.0 mi South 5.8 mph - N/A   Clear
10:35 PM 67.1 °F 48.4 °F 51% 30.17 in 10.0 mi South 6.9 mph - N/A   Clear
10:54 PM 66.2 °F 48.2 °F 52% 30.17 in 10.0 mi South 4.6 mph - N/A   Clear
11:15 PM 65.3 °F 48.2 °F 54% 30.17 in 10.0 mi South 5.8 mph - N/A   Clear
11:34 PM 65.3 °F 48.2 °F 54% 30.17 in 10.0 mi South 6.9 mph - N/A   Clear
11:55 PM 65.3 °F 48.0 °F 54% 30.17 in 10.0 mi South 6.9 mph - N/A   Clear